Overview Statistics Trail Chart Weather Telemetry Raw packets
 

This is the latest recevied weather packets stored in our database for station/object OE6JUE. If no packets are shown the sender has not sent any weather packets the latest 10 day(s).

<< 97 98 99 100 101 102 103 >>
Time Temp. Humidity Pressure Rain* Wind** Luminosity Snow
1787965413 22.22° C 67% 1014.9 hPa 0 mm - - -
1787965113 22.78° C 62% 1014.6 hPa 0 mm - - -
1787964813 22.78° C 62% 1014.5 hPa 0 mm - - -
1787964513 22.78° C 62% 1014.5 hPa 0 mm - - -
1787964213 22.78° C 61% 1014.4 hPa 0 mm - - -
1787963913 22.78° C 61% 1014.4 hPa 0 mm - - -
1787963613 22.78° C 60% 1014.4 hPa 0 mm - - -
1787963313 23.33° C 58% 1014 hPa 0 mm - - -
1787963013 23.33° C 58% 1013.8 hPa 0 mm - - -
1787962713 23.89° C 57% 1013.5 hPa 0 mm - - -
1787962413 23.89° C 59% 1013.6 hPa 0 mm - - -
1787962113 23.89° C 59% 1013.4 hPa 0 mm - - -
1787961813 23.89° C 59% 1013.3 hPa 0 mm - - -
1787961513 23.89° C 59% 1013.4 hPa 0 mm - - -
1787961214 23.89° C 60% 1013.5 hPa 0 mm - - -
1787960913 23.89° C 60% 1013.5 hPa 0 mm - - -
1787960613 23.89° C 60% 1013.8 hPa 0 mm - - -
1787960313 23.33° C 61% 1013.5 hPa 0 mm - - -
1787960013 23.33° C 63% 1013.3 hPa 0 mm - - -
1787959713 23.33° C 65% 1013.2 hPa 0 mm - - -
1787959413 23.33° C 65% 1013.2 hPa 0 mm - - -
1787959114 23.33° C 68% 1013.1 hPa 0 mm - - -
1787958813 23.33° C 68% 1013.1 hPa 0 mm - - -
1787958513 23.33° C 69% 1013 hPa 0 mm - - -
1787958213 23.33° C 70% 1012.8 hPa 0 mm - - -

* Rain latest hour (hover to see other rain measurements)
** Current wind speed in m/s (hover to see current wind gust speed)